Theta_e
335 326 324 326 321 318 316 312 296 298 297 293 295 295 296 299 301 301 302 305 302 310 319 330 326 319 320 319 321 326 327 321 319 314 311 333 343 347 350 353 353 353 352 354 354 353 353 352 351 351 351 350 350 349 349 349 348 349 349 349 348 349 348 348 348 348 347 347 346 346 346 346 345 345 345 346 347 349 350 349 348 348 348 350 351 350 349 349 349 349 349 348 348 348 347 347 347
325 323 323 324 320 316 307 306 299 297 296 293 295 296 298 301 303 300 302 303 307 323 330 330 330 330 330 330 331 332 328 330 331 330 335 341 345 348 350 353 353 351 352 353 353 353 352 352 351 351 350 350 350 349 349 348 349 349 348 348 348 348 348 348 347 347 347 347 346 346 346 346 345 345 345 345 347 348 349 348 348 348 349 350 351 351 350 349 349 348 348 348 348 348 348 348 347
322 320 318 321 317 314 310 305 294 294 292 290 294 296 300 299 300 302 303 304 314 328 329 330 330 330 326 328 324 325 320 335 334 337 337 343 339 344 350 353 353 352 353 354 353 352 352 352 352 351 351 350 350 349 349 348 349 348 348 348 348 348 348 348 347 347 347 346 346 346 346 345 345 345 345 345 346 348 349 349 348 348 348 349 349 349 349 349 349 348 347 347 347 347 348 347 347
322 322 316 318 309 311 303 301 297 294 291 292 293 297 298 301 302 303 303 304 305 314 327 325 324 333 328 324 326 332 331 331 336 336 335 338 342 347 351 352 354 353 354 353 353 351 351 352 352 351 351 351 350 349 349 348 348 348 348 348 348 348 347 347 347 347 347 346 346 346 346 345 345 344 344 344 345 348 348 349 348 347 347 348 347 349 348 348 348 347 346 347 348 349 348 348 347
316 318 320 313 309 304 302 298 296 295 291 294 296 299 299 302 302 301 304 306 304 313 322 328 329 333 334 331 331 326 329 336 337 340 339 343 348 350 351 352 351 351 351 352 352 352 352 351 351 351 350 350 350 350 349 348 348 348 348 348 348 348 347 347 347 347 347 346 346 346 346 345 344 343 343 344 344 346 349 349 349 348 348 347 347 348 347 346 346 344 345 347 348 348 347 347 347
314 316 315 317 307 308 303 296 296 294 297 298 296 301 300 302 302 303 304 306 304 307 318 326 325 327 329 331 334 330 335 332 338 339 342 342 348 351 351 353 352 351 352 352 352 351 351 352 351 351 350 350 350 349 348 348 348 348 348 348 348 348 347 347 347 347 346 347 347 346 346 346 346 346 344 344 344 346 348 348 348 348 347 346 346 346 347 346 345 343 345 348 348 347 347 347 346
314 314 312 309 306 307 298 296 295 297 299 298 299 302 303 302 303 303 306 305 321 324 321 326 332 332 327 331 335 338 341 340 339 340 345 347 350 351 352 351 351 351 352 352 352 353 352 351 351 351 351 351 350 349 348 348 348 348 348 347 347 348 347 347 347 347 347 347 347 347 347 347 347 347 347 347 347 347 347 347 347 347 347 347 347 347 347 346 344 344 346 347 347 347 346 346 345
313 311 307 303 299 301 297 297 297 297 299 299 302 302 304 304 305 305 304 302 306 321 329 330 331 330 328 336 327 338 342 343 344 346 348 349 350 350 351 351 350 350 351 352 353 353 354 351 351 351 351 350 349 349 349 349 349 348 348 348 348 348 348 348 348 347 347 347 346 347 347 349 350 350 350 349 348 348 348 348 348 347 347 347 346 346 347 345 344 345 346 346 346 346 346 345 344
313 309 305 302 297 297 296 296 297 300 300 301 303 305 309 308 307 305 303 302 310 325 327 328 328 321 326 330 331 337 339 343 346 348 348 349 348 349 350 351 350 350 350 351 353 354 352 351 351 351 351 350 350 350 349 349 349 349 348 348 348 349 349 348 349 348 348 348 348 347 349 350 349 349 348 348 348 348 349 348 347 347 347 347 347 347 346 345 345 345 346 346 345 346 346 345 344
310 307 301 300 299 293 293 295 295 298 298 302 302 303 304 304 303 304 303 305 312 328 329 332 329 323 330 327 331 335 336 343 346 346 347 349 350 350 350 351 350 350 350 352 352 353 353 353 351 350 350 351 350 350 349 349 349 349 349 349 349 349 349 349 349 349 349 348 348 348 349 350 349 348 348 349 349 348 349 348 346 347 347 347 347 346 346 345 346 346 346 346 346 345 345 344 343
304 306 303 298 295 293 292 294 296 299 300 303 303 305 305 304 303 302 302 315 325 326 329 332 328 328 329 327 330 339 341 343 343 342 346 348 349 349 349 351 351 351 350 351 353 352 352 354 353 351 351 350 349 350 349 349 349 349 349 349 349 349 349 349 349 349 349 349 349 349 349 348 348 348 349 349 349 348 348 348 347 346 346 347 346 346 346 345 345 347 347 347 345 344 344 343 342
302 303 301 296 294 293 294 294 296 299 302 302 303 304 302 302 302 310 314 321 326 327 325 330 326 331 326 326 330 337 339 340 342 344 346 348 349 349 349 350 351 352 352 351 351 352 352 354 352 353 351 350 349 350 350 349 349 349 349 349 349 349 349 349 349 349 349 349 349 349 349 348 348 349 350 349 349 349 349 348 348 346 346 346 346 346 345 345 346 347 347 347 345 344 344 343 342
304 301 299 296 295 296 297 295 298 299 301 300 300 302 301 302 304 319 321 325 326 324 323 329 333 332 324 326 333 337 336 339 343 345 347 347 348 349 350 350 350 351 351 352 350 350 352 353 352 351 351 350 350 350 350 350 349 349 349 349 349 349 350 349 349 349 350 350 349 348 348 348 348 350 350 350 349 349 348 347 347 346 346 346 346 346 345 346 347 347 347 347 346 344 344 343 342
305 303 300 294 295 296 296 296 297 297 298 300 300 301 300 301 307 323 326 324 325 325 331 335 334 333 326 329 330 331 336 341 344 346 345 346 347 348 348 349 349 349 350 350 350 350 350 352 352 352 352 352 353 351 350 350 350 349 349 349 349 349 350 349 349 349 349 350 349 348 348 348 349 350 350 350 349 348 347 347 346 346 346 346 346 345 345 346 346 348 347 347 346 344 344 343 342
306 302 302 298 296 296 297 295 296 297 297 299 301 299 305 311 319 325 328 325 326 334 336 337 333 329 321 326 325 332 337 341 344 345 344 345 345 346 346 347 348 349 350 350 350 350 349 350 352 352 352 352 351 351 350 350 350 350 349 349 349 349 349 349 349 349 349 349 349 348 348 348 350 351 350 350 349 348 347 346 346 345 345 346 346 345 345 346 346 347 348 347 345 344 343 342 341
308 303 301 297 295 295 296 297 295 296 298 300 301 299 306 322 318 323 324 327 330 334 334 328 337 330 329 329 332 337 339 342 344 344 343 342 343 343 344 346 347 347 349 350 349 349 350 350 351 351 350 351 351 351 350 351 351 350 350 350 349 349 350 350 349 349 349 349 348 347 347 350 349 351 350 350 349 348 346 346 346 346 345 346 346 345 345 345 346 347 347 346 345 344 343 342 341
304 305 297 296 293 294 296 297 296 295 299 300 301 301 312 318 325 329 334 335 329 328 330 331 332 336 332 333 338 339 341 343 344 343 341 340 339 339 342 343 344 344 348 349 349 348 349 350 351 349 350 351 351 351 350 350 350 350 350 350 350 350 350 350 349 348 348 349 349 348 348 350 351 350 350 350 349 350 347 346 346 346 346 345 346 345 344 345 345 345 346 344 344 344 342 342 341
305 300 298 294 296 294 299 298 298 298 298 301 301 299 303 316 324 329 333 330 329 329 328 332 334 335 337 338 341 341 341 342 341 339 337 336 337 335 337 339 341 340 343 345 347 349 349 349 349 349 349 351 350 349 350 350 350 350 350 349 349 349 350 350 351 350 350 349 349 349 350 352 350 350 350 349 350 349 347 346 346 346 345 345 346 345 344 344 344 344 344 343 342 342 342 340 341
301 297 298 294 296 298 300 300 299 298 300 300 301 299 301 319 325 323 322 324 326 325 326 329 327 332 335 336 338 338 339 339 339 338 335 335 334 334 335 338 338 339 340 343 345 348 348 348 348 349 348 349 349 349 349 350 349 350 349 349 348 349 350 350 349 349 349 348 349 348 352 352 351 351 351 349 349 348 348 347 345 346 346 346 345 344 345 345 345 345 343 343 343 343 342 342 341
302 300 296 297 299 300 298 299 300 300 300 300 300 300 298 304 304 312 320 322 324 324 323 325 327 327 330 334 336 337 338 338 339 338 336 335 336 336 336 337 337 339 340 341 342 346 348 347 348 349 348 349 348 347 348 348 348 349 348 348 348 349 349 348 348 348 348 349 347 349 350 351 352 353 347 348 349 349 348 346 345 345 345 345 345 344 345 345 344 344 344 343 342 342 344 343 342
302 300 297 298 299 299 302 299 301 301 299 300 299 300 301 301 302 311 323 320 320 323 331 328 327 328 330 333 335 336 336 337 337 337 337 335 336 338 337 337 337 338 340 342 344 344 346 348 348 348 349 349 349 348 348 346 347 346 347 347 347 347 347 348 348 348 348 348 348 349 348 351 351 351 349 349 350 347 347 347 347 346 346 345 344 343 343 344 344 343 344 342 343 342 341 343 341
301 301 302 301 297 299 303 301 300 299 298 299 299 300 299 301 309 319 322 306 305 320 328 332 332 332 331 332 334 336 335 336 336 335 335 336 334 334 336 337 339 340 341 340 342 344 346 348 349 349 348 348 348 347 348 347 347 345 345 346 346 347 347 347 348 348 348 348 348 348 348 350 351 349 349 350 350 347 345 345 345 345 344 343 343 341 341 343 344 343 342 342 343 343 342 342 340
297 299 299 300 301 301 302 301 298 299 299 299 299 300 301 301 301 313 311 307 304 309 327 334 334 335 335 336 335 334 335 335 335 335 336 336 335 335 335 335 335 336 338 340 342 345 346 347 348 348 347 348 347 348 349 348 347 347 346 346 345 346 347 346 347 349 348 350 350 350 348 348 348 349 348 348 348 348 345 344 343 344 342 341 342 340 340 342 343 343 343 343 343 342 340 339 338
300 298 298 300 299 299 302 301 300 298 298 299 301 299 300 300 299 302 306 315 326 328 331 335 336 336 335 333 335 335 335 335 336 338 339 338 337 336 336 335 336 338 338 339 342 345 345 346 348 347 347 346 346 347 347 347 348 346 346 346 345 346 345 346 348 348 348 350 349 350 349 347 347 347 347 346 347 348 345 344 344 343 342 341 341 340 338 340 342 342 340 339 340 341 338 337 336
299 298 300 301 300 300 300 300 298 298 298 300 298 298 299 300 300 300 303 323 330 330 335 334 334 333 333 333 334 335 334 335 336 337 338 337 338 338 338 337 337 337 336 339 341 343 345 346 347 345 346 345 346 347 345 347 347 347 346 345 344 346 346 345 347 347 347 348 349 349 348 347 346 345 345 345 347 347 346 343 343 342 342 340 340 339 339 340 342 341 339 337 339 339 338 337 335
299 301 299 300 301 302 301 299 299 297 298 298 298 299 298 299 298 301 300 328 331 333 333 333 332 331 332 332 332 333 334 334 336 336 337 337 336 335 336 336 336 335 336 338 340 342 343 346 345 345 346 345 346 346 345 345 345 345 345 345 346 348 346 346 345 346 346 346 345 345 347 347 346 345 345 346 345 345 344 342 342 343 341 341 341 340 340 340 341 341 339 337 336 338 337 336 334
301 301 301 302 302 298 299 298 300 297 298 299 299 299 299 298 298 299 312 329 331 331 330 331 331 330 331 331 332 334 333 333 334 337 337 336 335 335 336 336 336 336 337 337 338 341 343 343 343 345 346 346 346 345 345 344 345 345 345 346 348 345 345 345 345 345 345 345 344 345 345 345 344 345 344 344 343 343 342 341 341 342 340 340 341 340 342 341 341 341 341 338 337 337 337 337 334
299 300 297 298 297 297 298 297 298 298 300 297 299 298 298 300 300 301 318 329 331 329 328 329 330 330 330 331 331 333 333 334 334 336 335 335 334 334 335 336 336 337 336 336 338 340 342 341 343 344 345 345 345 344 344 343 343 344 344 345 345 345 346 344 344 345 344 344 345 344 345 344 343 343 344 343 342 342 341 340 341 341 340 341 341 341 340 340 339 340 341 342 340 339 337 336 338
298 298 297 297 297 299 298 298 297 297 299 298 300 299 298 298 299 301 312 330 330 329 327 328 329 329 330 330 331 331 331 332 333 334 336 337 337 336 336 338 338 337 338 339 338 338 339 341 341 342 344 344 343 343 343 343 344 343 343 343 344 344 345 345 344 344 344 345 345 344 344 344 344 343 343 343 341 341 342 340 341 341 342 342 341 341 341 340 339 339 341 342 339 336 335 334 335
298 297 297 297 297 296 297 296 296 297 299 296 300 294 297 297 300 299 311 328 328 327 326 327 328 328 329 330 329 330 331 331 331 333 336 337 336 336 335 337 337 337 337 338 339 338 340 341 342 342 342 342 343 344 343 342 342 343 343 344 344 345 345 345 345 344 345 345 345 345 343 343 343 345 343 342 341 341 342 340 340 340 342 344 343 341 339 339 337 337 339 340 337 334 333 333 333
297 295 296 295 294 294 297 296 296 298 298 296 300 295 296 297 298 299 307 327 326 324 326 327 327 328 328 329 329 329 330 331 332 334 336 337 337 336 335 336 336 337 337 337 337 339 340 340 340 339 340 341 341 341 342 342 342 341 342 343 344 344 344 343 344 344 344 344 344 344 343 342 342 342 343 342 341 341 340 340 340 341 342 342 341 340 339 339 337 336 337 337 337 337 336 334 334
295 294 292 292 293 294 297 298 297 298 297 299 299 296 294 296 301 304 302 323 326 324 326 326 327 327 328 328 328 328 329 331 332 333 335 336 336 335 335 335 336 336 336 337 338 338 337 339 341 339 339 339 340 340 341 342 341 342 342 342 344 343 342 342 343 343 344 344 343 343 342 342 342 343 342 342 341 340 340 340 340 342 341 341 341 341 340 337 338 337 339 338 335 335 335 333 333
293 294 292 291 292 293 294 296 295 297 298 299 298 294 296 296 306 310 309 320 325 324 325 326 327 327 327 327 327 328 328 330 330 331 333 334 336 335 335 335 335 336 337 336 336 337 337 338 338 337 337 338 338 339 340 341 341 341 342 343 342 342 342 341 343 343 342 343 344 342 342 342 341 341 341 341 340 338 339 340 339 339 340 340 341 341 339 338 339 338 340 339 340 335 335 333 332
292 293 292 292 292 293 292 296 297 296 298 296 298 296 297 303 310 313 313 310 321 323 324 326 326 327 327 327 327 327 328 329 328 330 332 333 334 335 336 334 335 336 336 337 337 336 335 336 337 337 337 338 339 338 339 339 340 341 341 341 341 341 341 341 341 342 341 341 342 342 342 342 341 340 338 338 337 338 339 335 336 337 340 340 338 338 339 340 341 340 337 336 337 336 334 333 332
290 292 292 291 290 292 292 293 295 298 298 297 298 302 305 307 311 313 314 315 317 321 323 325 326 327 327 327 327 327 327 328 329 330 330 332 333 335 335 335 335 335 336 336 336 337 337 336 337 336 336 337 338 339 340 340 339 339 339 339 339 339 339 341 342 340 340 340 340 341 341 342 339 337 335 335 335 337 337 336 336 335 338 340 338 336 336 336 337 340 337 334 335 335 334 334 332
293 293 293 293 292 292 293 295 295 297 296 298 301 301 304 306 309 311 314 316 315 316 321 324 326 327 327 328 327 327 327 327 330 331 331 331 333 334 335 335 335 335 335 335 336 335 335 334 335 334 335 336 338 339 339 338 337 336 336 337 337 336 336 337 338 337 338 339 341 341 341 340 340 338 336 336 336 337 337 336 333 335 337 337 335 333 333 333 333 335 336 334 333 333 334 332 332
293 292 292 291 292 293 293 293 296 297 299 300 303 304 304 305 307 310 313 315 314 315 316 317 317 319 325 327 328 328 328 327 329 330 330 330 332 334 335 335 333 333 333 333 333 334 334 333 333 331 333 335 335 336 336 336 335 334 335 334 334 334 334 335 335 336 337 338 339 340 339 337 338 338 338 338 337 337 336 336 334 335 336 334 333 333 334 333 335 336 334 335 333 330 329 332 332
294 292 292 290 291 292 294 295 295 296 299 298 303 302 303 305 308 310 313 312 310 312 312 314 316 317 317 319 326 328 329 329 329 329 330 330 331 333 334 334 332 331 331 332 331 333 334 333 332 331 333 333 334 335 336 336 336 335 335 334 334 334 333 332 333 335 335 334 335 337 334 333 336 337 337 336 335 337 337 336 334 334 333 333 332 333 332 332 331 331 331 329 330 328 326 330 332
293 293 292 292 292 293 294 294 296 299 302 298 304 302 302 305 308 310 311 311 312 313 314 314 315 316 316 318 320 326 327 327 328 328 329 329 331 332 332 332 332 332 332 332 334 333 334 334 334 333 333 333 333 333 334 334 336 337 336 335 335 335 338 338 337 336 335 335 335 337 337 335 334 334 335 335 334 335 337 336 333 332 333 332 330 329 330 330 331 330 332 330 325 330 327 329 332
293 292 292 291 292 292 291 294 295 296 298 299 304 301 302 306 309 310 312 312 312 314 314 315 316 316 316 318 321 322 324 325 325 325 326 327 329 330 331 331 332 333 332 332 333 334 334 335 335 333 333 334 334 336 335 336 336 338 338 337 337 337 334 335 337 336 335 333 333 336 338 337 336 335 334 334 334 335 337 334 333 334 334 334 330 328 330 330 330 330 330 330 328 323 325 327 331
293 293 292 292 290 293 295 293 294 298 302 305 304 301 300 303 303 306 310 313 312 313 313 314 315 316 318 319 319 322 323 323 323 325 325 327 327 328 329 330 331 329 329 330 331 333 334 335 336 336 335 335 336 337 337 337 337 335 335 335 337 335 336 334 332 332 333 333 332 332 334 336 336 335 334 334 333 334 335 334 332 333 333 333 331 331 331 332 332 332 331 329 328 327 326 327 329
291 293 294 294 293 294 292 293 295 296 296 296 294 292 294 299 302 304 308 310 309 311 311 310 312 313 314 314 315 317 319 323 324 324 325 326 327 327 328 329 328 327 327 329 331 331 333 333 335 336 338 337 337 338 339 338 337 334 333 332 330 330 329 325 325 326 328 331 333 333 334 334 334 334 334 333 333 334 335 334 332 331 331 331 331 330 331 332 331 331 331 331 329 330 328 325 326
290 292 293 293 294 294 293 292 294 290 289 294 293 291 290 299 299 302 306 307 307 309 309 309 310 311 311 311 312 312 313 314 316 317 318 318 321 323 324 324 324 324 326 329 329 329 331 331 332 333 334 336 337 338 339 338 337 336 335 335 334 333 332 329 331 332 331 333 337 334 333 334 334 334 334 333 333 334 334 333 333 333 331 331 332 332 330 329 329 331 332 329 327 328 328 324 325
290 293 293 293 293 292 293 293 294 292 294 292 293 298 293 292 298 303 306 305 305 306 307 307 308 308 309 310 310 311 311 312 312 312 313 314 315 316 317 319 321 322 324 326 327 327 328 328 329 331 332 333 333 334 334 335 334 334 334 334 335 334 332 332 332 333 333 333 333 334 335 335 335 336 335 334 334 333 332 332 332 332 332 332 333 332 331 331 331 332 333 331 330 330 330 327 326
292 292 293 293 294 294 293 294 293 293 293 289 294 294 293 291 297 304 305 302 303 303 305 306 306 307 308 308 308 309 310 310 311 310 310 311 312 312 314 315 317 318 320 323 324 325 327 328 329 329 330 330 330 331 333 334 333 332 332 331 330 332 332 331 333 332 330 331 331 334 333 333 334 336 336 335 334 332 332 332 333 333 333 333 333 333 335 332 332 332 332 332 329 329 330 331 330
291 292 294 294 293 292 293 294 293 292 290 287 290 292 291 290 297 300 303 302 301 302 303 305 306 306 306 306 307 308 308 309 309 309 309 309 310 311 312 313 314 315 318 320 321 323 325 327 328 328 328 329 330 331 333 334 335 333 331 330 329 329 330 330 330 330 330 332 331 333 334 333 332 333 335 336 334 332 332 332 333 333 333 334 334 333 331 331 332 332 333 332 332 329 330 330 330
293 294 293 293 293 293 293 294 293 292 285 289 288 290 292 287 294 298 298 298 302 303 303 304 305 305 305 305 306 306 306 307 306 307 307 308 309 309 310 310 311 313 315 316 317 318 319 322 324 326 328 329 331 332 333 332 333 334 333 333 331 330 330 330 328 328 329 329 329 331 332 332 333 333 335 334 334 333 331 332 333 333 335 335 334 334 331 331 331 333 334 332 331 330 329 331 330
295 293 293 293 292 294 293 292 294 285 284 289 291 291 292 288 291 299 302 304 303 302 301 301 302 302 303 304 304 305 305 306 305 305 305 305 306 306 307 307 308 310 312 313 314 315 316 317 318 320 324 326 328 329 331 332 333 334 334 334 332 332 332 329 328 327 328 328 330 330 331 331 332 332 334 333 330 331 332 331 333 333 332 333 333 335 334 332 332 333 334 333 331 329 331 330 330
294 294 292 287 285 286 283 288 282 284 284 289 290 290 293 292 296 300 302 302 302 302 302 301 301 302 302 303 303 304 304 304 304 304 304 304 304 304 305 306 307 308 308 310 311 312 314 315 316 316 318 321 324 327 328 330 331 333 333 333 333 332 332 331 330 328 330 329 329 329 330 329 330 330 331 331 329 331 332 331 332 332 332 333 334 333 332 331 331 332 334 333 333 330 329 330 329
291 291 291 286 283 281 277 282 284 285 286 289 292 294 294 296 298 302 300 302 303 303 303 303 303 302 302 302 303 303 303 303 303 303 303 303 303 303 304 305 306 306 307 308 309 311 311 312 314 314 316 318 320 324 326 327 329 331 332 332 333 332 330 330 327 327 329 329 330 330 330 330 330 331 332 332 332 332 332 332 333 333 335 335 333 331 330 330 331 332 333 333 333 333 332 331 330
291 294 292 291 288 283 277 281 279 282 285 289 294 292 290 290 293 302 302 303 303 304 303 304 304 304 304 303 304 304 303 303 303 302 302 302 303 303 304 304 305 306 307 307 308 309 310 310 311 312 314 316 318 319 323 326 327 328 329 330 329 330 329 328 327 328 329 329 330 330 331 331 331 331 332 333 334 333 332 333 333 333 335 335 332 331 330 331 332 332 333 333 334 333 332 332 331
291 291 293 291 289 294 285 285 287 286 286 286 290 288 295 295 301 302 303 303 302 302 302 302 302 304 303 302 301 301 302 302 302 302 302 302 303 303 303 304 304 305 306 306 307 307 308 309 310 311 312 313 315 316 318 322 326 327 328 327 328 329 328 327 327 327 329 330 330 330 330 331 332 332 333 334 334 334 332 333 332 333 334 334 332 331 331 332 333 333 333 333 332 333 332 331 331
290 291 289 291 296 292 283 283 285 285 287 285 289 292 295 300 301 300 301 301 301 301 301 301 301 301 302 300 300 300 300 301 301 301 302 302 303 304 304 303 304 304 305 305 305 306 307 307 308 309 310 312 313 314 315 318 321 324 326 327 328 328 328 328 327 327 328 329 328 329 330 331 332 332 332 333 332 331 332 332 331 332 333 332 332 332 333 333 333 333 332 332 331 332 331 331 332
292 288 291 293 296 296 292 284 283 284 282 283 289 288 290 292 287 299 299 298 298 299 299 300 300 300 299 299 299 299 299 300 301 302 302 302 302 303 303 304 304 303 304 304 305 306 307 307 308 308 308 309 310 312 313 316 317 319 323 325 327 328 329 328 329 328 329 328 328 328 329 330 331 332 332 332 332 331 331 330 330 331 332 332 332 332 332 331 331 330 330 332 332 332 330 331 331
294 293 297 292 285 286 288 287 278 280 280 282 287 291 291 293 292 296 295 295 296 297 299 299 299 299 298 299 299 299 300 300 300 300 300 300 301 302 303 303 304 304 305 305 304 305 306 307 307 307 307 308 309 310 312 314 316 318 321 323 326 328 328 329 329 328 328 327 327 328 329 330 331 331 332 331 331 331 331 330 331 331 332 332 332 331 330 328 328 328 329 331 332 330 329 329 330
295 297 293 295 297 293 287 288 289 288 281 282 284 289 286 296 297 299 296 296 297 298 298 298 298 298 298 298 298 298 298 299 299 299 300 300 301 302 302 302 303 304 304 305 305 306 306 306 307 307 308 309 308 309 310 311 313 315 318 321 325 327 328 328 328 328 328 327 328 328 329 330 329 331 331 331 330 330 330 331 331 332 332 333 331 331 330 330 329 329 330 330 331 330 328 328 329
291 293 292 293 293 293 294 291 288 287 282 283 284 282 288 294 298 299 297 297 298 299 298 298 298 298 298 298 297 298 298 298 299 299 299 300 300 300 301 302 303 304 304 304 305 305 305 306 306 307 307 307 307 308 309 310 311 313 316 318 321 325 328 328 328 328 328 329 329 330 329 330 330 330 330 330 330 330 330 331 331 331 332 331 330 330 331 330 329 329 329 330 330 329 328 329 329
294 293 292 293 289 288 285 282 290 290 288 284 284 283 290 293 299 299 297 297 298 298 298 296 297 297 298 297 298 298 297 298 298 298 299 298 299 299 300 301 302 302 302 303 304 304 304 304 305 305 306 306 306 307 308 308 310 312 314 315 319 324 326 327 328 328 327 327 328 328 329 329 328 330 330 329 329 330 331 331 331 332 332 331 330 329 329 329 328 328 328 329 330 329 328 328 329
Wind_Speed
3 3 2 1 1 2 2 3 4 2 2 3 1 3 1 2 3 6 5 3 4 2 2 2 1 2 2 2 7 9 6 2 3 3 3 3 4 6 10 15 16 16 15 14 14 14 15 16 17 18 18 18 18 18 17 17 16 16 16 16 17 18 18 18 19 18 18 17 17 17 16 16 16 16 16 15 14 15 17 19 19 18 19 19 18 19 20 20 20 20 19 18 17 17 17 17 17
2 2 2 1 2 1 2 2 2 1 1 1 5 2 1 1 1 5 4 3 5 4 4 7 9 7 9 12 10 7 12 7 2 3 4 6 8 6 12 15 15 16 14 13 13 13 14 15 17 17 18 19 18 18 18 17 17 16 16 16 17 18 17 17 17 18 18 17 17 16 16 15 16 16 15 15 13 13 16 18 18 18 18 19 19 18 18 18 18 18 17 16 16 15 15 16 16
2 3 1 1 0 2 3 1 3 1 3 5 3 5 3 4 3 2 5 5 2 2 3 1 3 6 2 7 6 8 4 5 5 6 7 10 11 7 12 14 14 14 15 13 13 12 12 15 17 17 18 18 18 18 18 17 17 16 16 16 16 16 17 17 17 17 17 16 16 16 15 15 16 15 15 15 12 11 14 17 18 18 18 18 19 18 18 18 17 17 16 15 15 14 15 16 17
1 1 2 1 2 2 1 1 1 4 3 1 3 5 3 2 3 1 2 2 5 5 4 5 5 5 4 12 5 2 8 4 4 7 6 10 5 9 12 14 13 12 12 11 12 11 12 15 16 16 18 18 18 18 17 17 17 17 16 16 16 16 17 16 16 16 16 16 16 15 15 14 14 14 15 14 11 11 11 14 15 17 17 17 17 17 16 16 16 14 14 14 13 13 13 14 15
2 0 2 1 1 2 1 1 1 1 5 4 1 1 4 4 3 2 3 5 5 4 3 2 4 6 8 7 4 2 5 3 4 2 6 5 7 11 13 13 12 12 11 12 12 12 13 19 15 16 17 18 18 18 17 17 16 16 15 16 16 15 15 16 16 16 16 16 16 15 15 14 14 14 14 12 11 11 10 13 14 15 15 16 15 15 15 15 14 13 13 13 13 13 13 14 16
1 2 1 2 1 2 2 3 2 5 2 2 2 4 2 1 2 3 6 7 3 4 2 1 1 4 5 5 4 3 4 2 3 5 7 8 12 14 14 13 13 12 12 12 12 11 13 18 16 15 16 18 18 18 18 17 17 16 16 16 15 15 15 16 16 16 16 16 16 16 15 15 15 14 14 13 11 12 13 14 13 13 14 15 15 16 15 15 13 13 13 12 13 13 13 14 16
0 1 2 2 3 1 1 1 2 3 4 5 3 2 4 2 4 4 6 2 2 5 3 3 9 11 8 3 5 5 3 3 4 5 5 11 13 14 14 12 12 13 13 12 11 11 16 15 15 15 16 18 18 18 18 17 17 16 16 16 15 15 15 15 15 15 16 15 15 15 14 14 15 15 15 15 13 12 14 14 14 14 14 15 15 14 14 14 14 13 12 12 13 14 14 16 16
1 2 1 1 2 1 1 1 3 3 1 6 2 7 3 3 3 4 5 1 2 1 6 5 2 6 5 4 4 4 6 3 4 8 11 12 13 13 12 12 12 12 12 11 11 11 17 14 14 15 16 17 18 18 18 18 17 16 15 15 15 15 13 14 14 14 14 14 14 14 14 14 13 13 15 15 16 15 14 14 14 14 14 14 14 14 14 14 14 13 13 13 13 14 14 15 16
2 1 1 1 2 2 2 2 3 2 6 4 9 10 10 8 7 5 4 2 2 2 6 4 3 2 4 5 5 3 4 5 8 11 12 13 13 13 10 12 12 12 13 12 11 12 15 15 14 14 16 17 17 18 17 18 17 17 16 15 14 13 12 13 12 13 12 11 12 12 14 15 14 14 14 14 14 14 13 13 13 13 13 14 14 14 14 14 15 14 13 13 13 14 14 15 15
2 2 2 1 2 3 2 1 3 1 4 3 7 10 9 5 5 6 6 1 5 7 4 2 3 11 9 10 5 2 3 5 10 11 11 12 12 12 12 12 13 14 13 12 12 13 11 17 14 14 15 16 17 17 17 16 16 16 15 13 12 12 12 12 11 12 12 11 10 10 10 12 12 12 13 13 14 14 13 12 12 12 13 13 14 14 14 15 15 14 14 13 14 14 14 14 15
2 2 1 3 1 0 4 2 5 5 5 4 8 10 9 4 6 2 2 5 2 5 6 5 11 13 9 4 2 2 3 6 8 11 11 11 12 12 11 11 11 12 13 14 13 12 13 14 17 13 13 14 14 14 14 14 14 14 13 13 12 12 12 11 11 11 12 12 10 9 11 11 11 12 13 14 14 13 13 13 12 12 13 13 13 13 14 15 14 14 13 13 14 14 14 14 14
2 1 1 2 2 1 1 4 5 5 7 4 2 3 3 1 5 4 5 8 7 8 3 3 7 11 10 7 4 3 4 4 6 9 11 11 10 11 11 9 11 11 12 12 12 11 12 12 13 14 13 13 14 14 14 14 13 13 13 13 13 12 12 12 11 11 11 12 11 10 11 11 11 12 13 13 12 12 11 12 12 12 13 13 12 13 13 14 13 13 13 14 14 14 14 14 14
1 1 3 2 1 2 1 3 3 5 5 3 5 3 2 4 2 5 6 7 5 7 5 2 15 2 5 4 2 3 6 6 7 8 10 9 9 9 9 10 11 11 12 12 11 11 12 12 11 12 14 15 13 13 13 13 13 13 13 13 13 13 12 12 11 11 11 11 11 11 10 10 12 12 12 12 11 10 10 11 11 11 12 12 12 12 13 12 12 12 12 14 14 14 13 14 14
1 1 3 2 1 0 2 2 1 4 2 4 1 7 3 2 1 5 8 8 5 3 3 10 7 10 9 6 3 5 7 8 8 8 8 9 8 9 10 9 11 11 12 12 12 12 12 11 11 12 15 14 13 13 13 13 13 13 13 13 13 12 12 12 12 11 11 11 11 12 11 11 12 12 11 12 11 10 10 9 10 11 11 11 11 12 12 11 11 10 11 14 15 14 14 14 14
1 1 2 2 2 1 1 3 2 1 3 2 6 6 4 1 2 2 5 11 7 5 5 3 1 6 4 9 6 11 10 10 9 9 9 9 9 10 10 9 10 10 10 10 11 11 11 11 11 11 12 12 14 11 11 12 12 13 12 13 13 12 12 12 12 11 12 12 12 12 12 12 14 14 13 11 11 10 9 9 9 10 10 10 10 11 11 10 11 11 11 13 15 14 14 14 14
2 3 2 2 2 2 2 3 1 2 2 2 5 5 1 5 2 0 3 3 8 3 4 1 4 2 5 8 5 12 11 12 10 10 10 10 9 9 9 9 9 9 8 9 9 10 10 11 10 10 10 11 10 10 11 12 14 13 13 13 13 12 12 12 12 13 13 12 13 14 13 12 13 13 14 11 11 10 8 7 9 10 10 10 9 10 10 10 11 12 13 12 14 14 15 14 14
1 1 3 2 4 3 3 4 3 2 4 3 1 8 3 2 3 4 4 7 11 6 6 5 4 2 5 3 7 14 12 12 11 11 11 10 9 8 7 8 7 8 6 8 8 8 10 10 12 10 11 12 11 11 10 11 13 17 15 13 14 13 13 14 14 15 15 13 12 12 10 10 10 10 11 10 11 8 8 8 8 10 10 10 10 9 10 10 11 13 14 13 13 14 14 15 14
2 3 2 3 1 5 4 5 5 2 3 8 10 7 1 2 2 7 9 12 13 10 9 5 7 6 3 5 12 13 13 14 12 13 11 10 8 9 8 8 9 8 8 7 7 8 8 8 10 11 11 12 11 9 8 8 10 13 12 13 12 13 14 14 14 12 12 11 12 11 8 6 8 8 9 10 7 9 8 8 8 9 10 10 10 9 9 10 11 13 14 14 14 14 16 9 10
2 2 2 6 4 2 1 0 2 2 4 7 6 2 3 3 5 4 3 7 8 10 7 6 7 7 8 9 12 14 14 13 13 12 13 12 10 11 10 9 9 9 9 8 7 8 7 7 9 10 11 11 12 10 8 8 11 10 11 11 10 12 13 12 10 11 10 10 10 9 6 5 7 7 7 7 7 9 9 9 8 9 10 11 10 10 9 9 9 11 14 15 13 12 8 6 7
1 3 5 7 3 4 3 3 3 6 5 8 9 2 4 2 2 1 3 8 4 8 8 5 6 7 9 11 13 14 14 13 12 12 12 12 10 11 11 11 10 10 10 9 9 9 9 9 10 11 12 12 11 9 9 9 9 8 8 9 9 9 9 9 9 9 9 9 9 7 7 5 6 4 8 8 8 8 8 9 8 8 10 10 11 9 9 8 10 10 11 13 11 8 6 6 6
3 3 6 2 1 3 2 5 7 5 2 4 4 7 4 5 4 3 7 7 3 2 7 8 11 12 13 13 15 14 14 13 12 12 12 11 10 7 8 9 9 9 8 8 8 10 11 9 9 11 11 11 11 9 9 9 9 9 9 8 8 7 8 8 7 8 8 9 8 6 7 6 6 5 7 5 5 6 7 7 6 6 6 7 6 6 6 6 6 8 8 8 6 6 6 6 6
5 6 2 2 3 3 3 4 1 1 0 1 4 7 5 4 3 3 7 1 4 5 10 7 13 15 16 16 16 13 14 13 13 13 13 12 12 11 8 7 8 8 7 7 8 9 10 10 10 10 11 11 10 8 8 8 9 8 8 8 8 8 7 8 7 7 7 8 7 7 7 6 5 6 6 6 5 5 6 6 6 5 6 6 5 6 5 3 4 6 6 6 5 6 6 5 5
6 2 4 4 4 8 1 1 2 2 2 3 6 2 5 3 2 1 3 1 4 2 6 12 14 16 14 14 16 15 14 14 14 15 14 13 12 11 10 9 9 9 7 8 8 8 9 9 11 11 10 9 10 8 7 7 7 6 7 7 8 7 7 7 6 5 6 6 6 5 5 5 5 5 6 6 5 4 4 4 5 5 5 6 5 5 5 3 3 3 4 4 4 6 6 6 6
4 5 2 3 5 8 3 7 3 3 2 5 1 3 4 3 4 2 3 4 3 4 8 12 11 12 13 15 16 16 16 16 16 13 11 12 12 11 10 9 8 7 8 8 9 7 9 9 10 10 9 8 7 8 7 6 5 7 7 7 7 7 7 7 5 4 5 4 6 4 5 5 4 5 5 6 5 4 4 3 4 4 5 4 5 5 5 3 3 2 2 3 4 5 6 6 6
7 7 4 5 3 4 4 5 5 3 6 7 3 4 3 5 1 1 2 5 4 5 11 12 13 13 13 13 15 13 13 13 13 12 6 6 7 7 7 7 8 9 10 10 9 8 10 7 7 10 9 9 7 7 8 5 5 5 6 7 7 7 7 6 5 4 4 4 5 5 6 5 5 5 5 6 5 4 3 4 4 4 4 4 4 5 5 4 3 3 3 3 3 5 5 6 6
7 8 2 3 5 4 5 6 4 2 2 4 5 4 3 4 2 1 4 5 5 10 11 13 13 14 14 14 13 14 13 14 13 13 8 6 4 7 7 7 8 9 9 9 7 6 8 6 5 8 7 9 8 8 7 6 6 6 7 6 5 6 7 6 6 5 5 5 5 6 5 6 5 5 5 4 5 4 4 5 4 3 3 3 4 5 5 4 4 3 3 4 4 5 5 6 6
6 7 8 9 6 3 3 3 4 2 5 4 4 2 4 4 3 2 3 4 8 11 12 12 13 14 13 12 12 12 13 14 14 11 7 4 5 7 8 8 8 8 8 8 7 7 7 7 8 8 7 8 8 8 6 6 5 6 7 6 5 7 7 6 6 7 6 6 6 7 7 7 6 5 5 5 4 4 4 5 5 4 3 3 4 4 3 4 4 4 4 4 4 5 5 5 6
4 5 3 6 3 5 6 5 7 2 3 3 5 1 2 2 3 0 6 7 9 13 12 12 11 11 11 11 11 11 11 10 9 9 13 11 7 6 8 7 9 7 8 8 7 6 7 9 9 8 9 8 7 7 5 6 7 7 6 6 6 6 6 6 6 7 7 7 7 7 6 6 6 6 6 5 5 5 4 5 4 5 4 4 4 4 4 4 4 4 3 3 3 4 4 4 4
3 6 3 1 1 3 2 3 3 1 2 3 5 3 1 2 2 4 6 9 10 11 12 13 12 10 9 10 10 10 11 10 10 10 10 7 3 3 5 3 5 7 5 7 8 7 7 8 9 9 9 8 8 8 8 7 6 6 7 7 7 6 7 7 7 6 6 5 5 6 5 7 6 6 5 6 6 5 5 6 6 5 5 4 4 5 5 4 3 3 2 3 4 4 5 5 4
4 3 1 2 1 1 1 1 1 3 1 2 3 3 1 2 3 10 2 9 10 10 10 11 10 9 9 10 10 10 9 10 11 11 6 4 2 2 2 1 3 5 4 5 7 8 7 5 4 4 6 8 8 7 6 6 7 6 6 6 7 7 6 6 6 6 6 6 6 7 6 7 6 6 6 6 6 6 6 6 6 6 5 4 4 5 5 5 4 4 5 6 4 5 5 6 6
5 2 1 0 2 2 2 2 1 4 1 1 3 2 4 6 11 12 4 5 8 10 10 10 11 10 9 9 10 10 10 10 10 10 9 3 1 1 1 2 2 2 3 4 5 5 6 5 4 3 4 5 6 5 6 6 5 6 6 7 7 7 6 6 6 6 7 6 6 5 7 7 7 7 7 6 7 6 6 6 6 5 5 5 4 6 6 5 5 5 5 7 6 5 6 6 6
2 6 3 1 3 2 4 2 2 3 2 2 2 1 4 6 13 13 6 1 5 6 8 10 10 10 9 9 10 10 9 9 8 8 7 6 3 2 4 4 3 2 2 1 1 2 3 3 2 1 3 3 3 3 4 5 7 6 6 6 6 8 7 7 7 7 6 6 7 6 7 7 6 6 7 7 6 6 6 6 5 5 6 5 5 5 5 6 5 5 5 6 7 7 7 7 5
3 3 2 4 2 1 1 3 1 3 3 5 3 2 2 5 14 13 8 2 4 5 7 7 8 8 8 7 8 9 8 8 7 6 4 5 4 4 3 3 2 2 1 1 1 3 2 2 2 2 3 3 3 3 2 3 4 5 5 6 6 7 8 7 7 5 7 6 6 6 7 6 8 8 8 8 6 7 7 2 4 6 6 7 6 5 6 6 6 5 5 5 5 8 7 8 6
4 2 3 1 5 4 4 1 2 1 2 3 5 6 6 5 10 12 12 6 2 5 7 8 7 7 6 6 7 9 8 7 4 4 5 5 4 3 2 2 2 2 2 3 3 3 3 3 3 3 3 2 2 3 4 4 4 4 3 5 6 7 7 8 7 6 7 7 7 7 6 7 7 6 7 7 6 6 6 7 7 6 6 6 6 5 5 5 5 6 6 6 5 6 6 7 7
5 5 4 3 1 1 2 3 2 1 5 7 12 12 9 9 10 13 12 10 3 2 6 6 7 7 6 6 7 9 6 5 6 5 4 4 3 2 2 3 4 4 3 4 3 3 3 3 3 3 3 2 3 3 3 3 3 2 3 3 4 4 4 4 4 5 6 8 8 8 7 7 7 6 7 6 6 7 8 7 5 7 7 7 6 6 6 6 7 6 7 8 6 5 7 7 7
7 7 5 4 6 4 4 1 1 4 7 9 8 7 9 12 13 12 13 12 11 7 3 4 5 6 6 5 7 6 5 4 4 4 3 4 4 3 3 4 6 6 6 6 5 4 3 3 3 4 3 3 3 3 3 4 4 5 5 4 4 2 2 3 3 4 5 7 8 7 6 7 6 7 8 8 8 7 8 8 9 9 7 6 5 6 7 6 8 9 8 9 8 6 5 6 7
6 5 5 4 4 2 2 3 1 4 12 10 10 13 13 13 12 11 11 12 15 13 10 7 7 6 4 4 7 6 3 3 4 5 4 3 4 4 3 4 6 7 7 8 7 5 5 4 3 3 3 3 3 3 3 4 4 5 5 6 6 3 4 5 4 3 5 6 7 6 2 2 4 5 5 6 7 8 8 8 8 6 7 7 7 5 7 8 8 8 8 7 9 8 6 7 8
8 6 4 4 2 5 2 3 4 1 5 3 7 15 14 12 11 11 11 15 17 13 12 12 10 9 7 8 7 3 0 2 5 5 6 5 5 5 4 5 7 8 8 7 5 5 4 3 5 4 4 3 3 3 4 5 5 6 5 4 4 3 4 5 3 4 2 5 8 5 3 5 4 5 6 5 6 9 8 7 6 8 8 7 6 5 6 7 6 5 7 8 6 8 5 7 10
4 4 3 2 4 2 2 2 4 4 11 6 7 16 11 11 11 12 14 14 12 12 12 11 12 12 11 9 8 7 3 2 4 4 5 6 6 5 5 6 6 7 7 6 5 4 3 2 4 6 6 6 5 4 3 5 5 5 4 3 3 3 4 5 4 4 5 5 10 8 6 5 7 8 7 6 8 9 9 8 8 10 11 7 5 5 5 6 6 6 8 8 8 4 5 2 7
5 4 4 5 3 3 6 4 2 3 0 11 11 15 10 9 10 14 14 13 12 13 14 14 13 14 13 12 10 9 9 7 6 6 6 6 6 6 6 6 7 7 8 7 5 4 3 3 2 4 6 7 7 7 7 7 7 6 6 6 5 6 4 4 3 3 3 5 9 9 7 5 9 7 6 8 10 11 8 8 9 9 8 6 8 6 7 7 7 6 5 5 8 8 5 7 9
1 5 4 3 3 1 1 4 2 6 9 9 14 10 8 10 9 9 11 11 12 12 14 15 15 14 13 13 13 11 9 8 7 7 7 7 7 8 8 8 8 8 8 7 7 6 3 2 1 2 2 5 6 8 8 8 7 7 6 6 6 6 5 4 3 6 8 9 9 8 9 8 8 7 7 8 9 9 8 8 8 8 4 6 6 5 6 7 9 7 7 8 8 7 7 5 8
4 4 7 7 4 4 2 7 8 6 6 5 3 4 4 6 8 9 8 8 12 12 15 15 14 13 13 14 14 14 13 11 10 10 9 8 7 8 8 8 8 8 8 8 9 8 8 8 7 5 0 3 4 5 6 7 7 8 8 8 8 7 8 8 8 8 6 8 10 10 10 9 9 7 7 8 7 7 8 7 10 9 7 7 5 5 5 5 7 9 11 8 7 4 6 3 5
6 6 7 4 5 4 3 4 5 6 6 4 2 3 3 3 7 7 7 9 11 12 15 14 12 12 12 12 12 13 14 14 15 15 15 15 14 12 12 11 10 10 9 8 7 6 4 4 3 3 5 5 3 5 6 6 6 7 9 8 8 8 8 8 8 7 7 7 7 8 10 10 10 8 8 9 9 10 9 7 8 8 7 6 4 5 7 7 7 6 5 5 8 7 8 9 8
7 1 10 7 6 6 5 3 3 2 3 4 2 0 7 5 4 5 5 9 11 13 14 13 12 12 13 12 13 13 13 14 13 14 15 15 15 13 12 11 11 11 11 9 7 7 8 6 3 2 1 1 2 4 4 4 4 5 6 7 7 7 6 4 6 7 7 9 8 7 7 8 8 8 7 8 8 5 9 8 9 8 8 8 8 7 9 8 6 6 8 8 6 7 9 7 7
3 4 10 11 11 8 6 4 2 2 4 4 4 1 5 2 2 2 2 6 10 12 12 11 11 12 12 13 13 13 13 13 14 14 14 14 13 13 12 13 12 13 13 12 10 10 9 8 7 5 3 2 1 1 2 2 3 4 6 6 7 7 6 5 5 6 8 9 9 9 8 9 9 9 9 8 7 7 6 7 7 7 8 9 7 7 7 8 8 9 11 10 11 10 9 7 7
3 6 5 6 6 5 3 3 4 2 3 4 6 4 5 1 2 1 4 6 8 8 8 9 10 11 11 11 13 13 13 12 12 12 12 12 11 11 10 10 14 12 10 12 12 12 11 11 11 10 8 5 3 3 3 4 3 4 5 6 7 7 6 6 7 8 8 8 10 9 8 8 8 7 7 6 7 8 6 6 7 9 9 7 7 8 7 7 8 10 11 12 11 10 8 9 10
9 10 9 5 4 3 3 3 1 2 3 2 3 4 2 4 2 1 2 2 4 5 6 7 9 11 11 11 12 12 11 12 12 12 13 12 10 11 12 13 12 12 11 12 12 12 11 12 12 12 10 8 7 7 6 5 5 6 7 9 10 9 9 8 7 8 8 9 10 9 8 8 7 7 5 5 7 11 11 10 8 8 7 7 8 8 7 7 7 9 9 10 11 10 6 7 5
11 4 5 8 3 1 3 2 0 4 4 3 1 3 2 6 3 3 5 8 8 7 7 8 9 10 10 10 10 11 12 11 12 13 14 15 15 16 15 15 14 14 14 15 13 13 12 11 12 13 13 13 10 9 8 8 8 7 6 8 9 10 9 8 9 8 9 11 11 9 7 7 8 7 6 6 8 9 9 8 7 8 8 8 8 6 6 9 8 9 9 9 8 7 9 10 10
3 6 9 11 6 3 3 4 5 7 4 2 2 3 5 6 4 7 9 8 9 8 7 7 8 8 9 10 11 10 10 11 11 11 11 12 12 13 15 15 15 15 14 14 13 12 12 12 14 14 13 13 12 11 10 9 8 8 8 8 8 7 7 8 5 6 9 10 9 8 8 8 7 7 7 7 8 10 9 9 9 8 8 8 7 6 7 6 6 8 8 9 9 10 10 11 10
5 12 10 11 9 7 4 3 2 2 2 0 3 4 5 7 6 9 9 9 8 8 8 7 7 8 8 9 10 10 10 10 10 10 11 11 11 11 10 11 11 11 14 14 13 12 11 11 12 13 12 12 12 12 12 11 9 7 8 8 7 6 6 5 7 11 11 10 9 8 8 7 7 8 7 8 8 8 8 8 8 8 8 8 8 9 7 7 6 6 8 8 9 8 9 12 11
7 2 10 4 3 4 5 4 5 5 4 2 3 2 7 9 5 10 11 9 8 7 7 7 7 8 8 8 10 10 11 11 10 10 11 12 11 11 10 10 10 11 12 11 11 11 11 10 10 12 12 13 12 13 12 13 11 10 8 7 8 6 6 7 8 5 6 9 7 8 8 7 8 7 7 7 8 9 9 10 10 10 8 7 9 7 7 7 9 9 8 7 7 7 9 9 10
1 3 4 5 8 2 4 1 1 5 5 2 5 2 2 5 8 10 8 10 9 8 8 8 10 10 10 10 11 11 11 11 12 12 12 13 13 13 11 10 11 11 11 11 12 11 10 10 10 11 11 12 12 13 13 12 11 10 9 8 8 9 7 7 6 6 6 8 8 9 9 9 9 7 6 5 8 7 9 9 9 10 8 8 9 8 10 9 8 7 6 7 7 6 8 10 9
7 4 8 3 4 10 5 2 3 3 3 3 2 4 6 7 6 8 9 10 8 7 8 8 9 9 10 10 11 11 11 12 12 12 12 14 14 15 13 13 12 12 12 12 12 12 12 11 10 11 11 11 11 12 11 11 11 10 9 8 8 8 8 9 8 9 9 9 9 8 7 9 9 7 7 7 8 8 8 8 8 8 8 9 9 9 8 7 7 6 6 7 8 7 8 9 8
9 7 7 5 2 4 3 4 1 1 3 2 1 5 8 7 4 7 9 10 7 6 6 7 7 9 10 10 10 10 11 11 12 13 14 14 15 15 14 13 14 13 13 13 13 12 11 10 10 11 10 11 11 11 11 10 11 11 9 8 8 8 9 9 10 11 9 9 10 8 7 9 10 8 8 7 9 9 9 10 9 9 9 9 9 8 6 3 3 3 6 8 8 8 8 7 7
7 8 10 6 3 6 3 4 3 4 2 4 2 7 4 6 4 6 8 8 7 6 6 6 9 9 10 10 11 12 12 13 13 13 14 15 15 15 15 15 14 14 14 13 13 12 12 12 12 11 13 12 11 9 10 9 10 9 8 9 10 10 9 9 9 9 10 10 12 10 9 10 10 9 8 8 9 10 9 9 8 8 9 9 8 7 9 9 8 6 8 8 8 8 8 7 7
6 9 6 3 1 4 7 0 3 5 5 6 4 7 5 5 1 9 9 9 8 8 6 8 9 10 9 9 10 11 12 13 13 13 13 14 14 14 13 14 15 16 15 14 14 13 14 14 13 13 13 13 12 12 11 10 11 10 9 9 9 9 9 9 9 9 9 10 11 11 11 10 11 7 8 9 9 10 10 10 9 10 10 9 9 9 9 9 10 9 8 7 8 9 8 9 8
4 6 3 3 4 2 4 4 1 4 7 5 7 6 3 2 5 7 11 9 8 8 9 8 8 9 10 10 10 10 11 11 12 11 11 12 13 13 14 13 12 12 12 13 14 15 14 14 15 15 15 15 14 13 12 10 11 11 12 12 11 10 11 9 9 10 9 8 10 9 9 10 8 8 9 9 10 10 10 10 10 10 10 10 10 9 9 8 9 9 8 9 8 9 9 8 8
4 8 6 7 9 8 8 2 2 3 6 7 8 5 3 2 3 7 10 8 8 8 10 9 9 9 10 9 10 10 10 11 10 10 11 11 12 13 13 13 13 13 14 16 15 15 17 17 15 15 15 14 15 14 13 13 11 11 12 12 12 11 10 9 10 9 10 11 11 11 9 8 9 9 9 10 10 10 9 9 10 11 10 10 9 9 10 9 9 8 9 7 8 9 9 9 8
Wind_Direction
347 354 315 325 272 285 252 16 231 117 229 227 301 191 63 263 314 303 262 284 265 71 6 14 25 18 310 57 87 93 34 54 6 286 44 91 159 157 157 147 144 145 141 137 135 139 142 141 138 135 132 131 130 131 132 132 132 131 130 129 128 126 127 128 127 126 127 129 130 130 131 131 128 127 127 125 122 122 121 119 117 116 112 105 104 103 102 101 101 100 100 97 98 97 95 91 91
334 332 353 286 287 291 157 303 80 154 53 190 224 62 223 124 203 236 279 359 337 5 52 98 86 86 73 86 119 143 60 44 10 72 76 115 138 149 149 146 149 145 139 137 137 141 144 143 141 137 134 132 133 134 135 135 134 133 132 131 129 129 128 127 127 128 128 130 131 131 133 133 129 129 128 123 120 123 122 118 116 115 114 112 109 106 104 102 101 98 96 99 94 93 96 93 94
358 332 235 256 244 19 105 302 235 55 193 229 215 211 73 203 208 267 285 293 319 126 315 80 134 30 359 175 72 359 82 70 97 88 104 137 144 157 155 146 147 141 138 139 141 142 144 146 143 137 134 134 134 136 136 135 134 134 131 131 130 130 129 129 127 128 129 130 131 133 135 132 132 132 128 127 129 125 123 122 124 121 117 115 112 110 107 105 101 94 92 94 94 95 96 101 102
293 344 295 295 137 261 114 90 83 164 184 263 302 200 211 170 165 269 304 312 284 276 307 17 45 347 332 67 50 202 66 61 70 120 123 159 144 152 152 142 141 140 140 142 143 144 147 145 143 139 137 136 136 135 135 135 133 133 132 131 130 130 130 128 128 130 130 130 131 131 132 134 133 129 128 126 124 123 124 119 120 124 119 119 117 109 109 106 100 93 92 94 92 92 95 101 108
326 5 289 13 211 123 184 48 100 151 219 181 42 40 190 224 73 280 302 312 278 227 286 114 102 18 56 62 351 20 44 81 116 124 127 119 140 146 146 140 142 144 145 146 147 147 146 146 143 141 139 138 135 135 135 133 132 133 133 132 131 131 129 130 131 132 132 132 134 134 134 133 129 126 124 121 118 115 111 111 116 117 123 120 110 107 106 106 100 96 93 89 91 94 99 106 114
280 278 353 263 320 45 109 172 154 206 260 125 255 75 108 138 281 272 291 305 305 199 182 42 100 161 67 33 16 69 349 75 108 130 141 143 147 148 145 146 148 149 148 148 149 150 149 147 144 142 140 138 136 136 135 133 134 132 132 133 133 132 134 136 135 134 134 135 136 136 136 138 135 130 124 121 117 110 104 105 108 116 122 121 114 111 109 106 103 97 93 93 96 98 100 110 115
19 166 15 98 112 303 241 216 208 230 240 186 271 263 106 201 260 304 311 354 67 100 220 114 125 123 101 87 89 47 355 277 188 143 156 146 148 150 148 150 148 147 148 150 153 150 148 145 144 142 140 140 138 137 136 136 135 136 136 135 135 136 138 138 136 134 136 134 136 136 138 135 135 135 133 128 119 113 115 116 117 121 116 116 118 115 114 109 105 100 98 100 103 104 107 113 116
112 264 1 229 89 265 155 25 261 172 257 200 290 290 248 225 243 280 294 232 100 198 116 107 104 80 69 285 122 50 42 24 89 127 136 146 148 149 154 150 150 148 150 152 152 149 142 144 142 142 141 140 139 138 138 138 138 137 136 136 140 139 140 140 136 135 138 139 139 140 135 128 124 124 120 121 120 117 117 116 118 121 123 124 122 120 116 113 109 105 105 107 111 110 111 114 116
14 73 224 163 183 65 112 246 291 198 287 256 262 240 271 263 247 248 265 138 120 110 131 130 158 99 112 81 74 32 50 85 119 130 143 147 151 152 154 157 154 151 154 154 154 147 148 143 143 144 143 142 141 140 140 141 140 139 140 140 139 138 139 140 136 135 138 140 139 142 131 129 129 126 123 119 117 119 117 121 127 127 129 128 126 122 119 116 112 111 112 113 115 114 113 115 114
93 308 132 69 44 216 13 219 237 186 250 261 295 291 270 225 227 223 275 142 136 111 67 66 138 114 137 100 125 55 64 117 132 137 148 152 151 155 159 161 159 156 156 157 156 149 145 145 147 149 146 144 142 141 142 142 141 140 142 139 135 135 135 139 138 138 141 141 144 144 128 134 135 130 127 126 122 121 122 123 129 132 133 132 129 125 123 117 115 117 119 120 120 118 115 115 113
148 55 15 196 167 233 228 246 249 273 259 314 284 257 267 277 224 241 209 94 161 120 139 94 91 119 120 95 106 48 121 140 152 143 149 153 157 157 157 159 157 156 156 154 153 149 149 148 150 148 143 139 139 139 140 140 140 141 140 138 139 136 136 137 140 141 143 146 150 140 132 137 136 135 134 126 123 126 126 128 131 136 137 136 132 128 122 118 119 121 123 124 123 122 120 117 115
147 161 180 140 211 233 150 253 276 292 291 284 283 341 19 260 170 160 149 131 124 135 140 214 141 130 103 125 144 141 150 163 160 152 153 156 157 156 152 154 156 154 149 147 148 150 152 146 153 144 137 136 140 141 141 139 140 141 141 140 139 138 137 139 139 141 145 146 146 137 138 143 143 142 132 125 125 125 126 129 130 134 137 137 132 127 122 121 123 127 130 130 128 126 122 119 117
110 145 130 176 130 202 77 277 278 300 310 26 335 25 350 151 215 118 118 103 127 129 97 3 137 178 108 128 134 160 175 173 165 159 153 156 156 156 150 150 153 149 146 146 147 150 151 151 149 150 142 140 138 139 140 141 143 145 144 142 141 139 138 140 144 144 147 147 145 143 144 150 144 141 131 127 125 123 124 127 130 131 134 134 130 126 124 125 127 131 134 132 131 128 123 120 118
182 205 152 199 40 143 212 299 262 293 55 348 235 299 321 281 75 142 128 101 66 42 68 104 113 107 100 119 185 194 193 174 163 155 152 149 151 148 150 151 150 150 150 151 150 153 155 153 152 153 149 151 146 144 145 147 148 147 145 144 143 141 140 143 149 148 146 144 145 148 156 157 151 139 130 126 125 124 124 125 128 130 133 131 128 125 125 127 129 127 131 134 133 129 123 119 118
178 185 96 80 130 232 159 242 23 92 55 313 9 343 351 75 174 147 104 102 63 90 110 68 90 246 174 169 193 196 182 172 160 155 153 153 149 152 150 151 151 151 148 151 152 153 158 155 155 153 158 154 152 153 154 148 144 146 146 147 145 142 143 147 150 151 149 150 152 156 164 162 156 140 135 130 129 130 123 123 125 130 131 130 125 125 126 125 124 125 128 133 133 128 122 120 121
118 143 51 196 177 243 149 235 185 328 40 256 360 305 206 67 5 3 3 333 125 74 342 109 355 9 144 196 202 172 159 160 157 157 153 147 146 147 152 153 150 154 148 153 155 159 160 160 155 158 158 156 155 156 156 156 148 149 150 148 147 148 148 148 149 151 153 155 160 165 169 170 159 144 139 138 137 129 128 126 125 125 129 127 123 123 124 125 124 123 125 131 131 125 124 123 123
123 284 165 78 224 203 155 219 174 89 318 277 285 2 42 38 37 64 65 112 112 68 64 6 353 331 172 241 142 139 148 156 153 156 152 147 148 154 155 156 160 161 155 166 161 165 166 162 160 158 161 158 159 158 160 159 153 158 153 151 153 152 153 154 155 157 161 165 168 169 170 167 158 147 149 145 141 134 122 125 128 127 125 129 124 120 123 122 120 122 125 125 125 122 122 124 124
191 176 129 197 218 201 184 207 195 78 302 338 345 346 314 114 105 113 99 72 87 83 66 49 57 71 85 103 129 136 151 157 160 162 159 153 162 161 164 165 165 166 166 167 166 161 162 166 164 162 161 162 160 162 161 162 160 165 157 161 162 160 162 164 163 165 170 169 173 172 169 160 161 156 154 146 147 135 135 133 133 130 131 131 123 120 120 120 121 123 126 128 126 126 129 128 125
175 97 200 227 178 239 191 81 179 298 327 315 313 338 308 132 155 162 150 124 119 89 79 101 96 98 105 130 141 153 159 161 167 170 162 165 169 165 167 166 171 167 169 170 167 162 163 167 164 169 166 165 163 164 165 164 166 164 163 162 164 168 171 173 167 168 170 172 173 174 156 161 159 155 155 150 143 131 131 134 133 137 135 135 129 126 124 119 119 124 130 132 131 136 137 133 134
157 204 195 228 181 256 234 203 249 210 304 317 336 51 320 164 269 155 198 144 153 131 128 121 128 144 145 151 160 163 164 168 175 173 171 173 171 169 170 171 173 175 174 173 171 172 168 165 173 174 172 170 168 168 167 166 164 164 165 167 170 173 169 170 169 169 171 171 172 173 164 157 151 153 148 140 142 142 133 135 139 141 135 134 135 133 124 111 113 113 122 128 139 150 137 137 135
130 201 219 227 152 252 230 201 245 261 218 304 321 307 355 11 312 247 143 137 154 122 183 162 175 166 162 166 169 168 170 174 178 179 178 176 172 175 177 177 177 175 176 173 172 171 172 165 171 176 174 175 172 169 168 168 166 167 168 169 171 173 166 168 170 171 171 173 174 169 172 159 156 155 155 159 174 152 148 149 153 155 151 140 143 146 147 137 148 142 138 152 151 150 148 136 135
133 223 258 181 144 269 254 216 196 101 34 310 313 331 359 293 256 212 171 146 108 177 196 202 165 166 166 171 174 172 175 179 184 186 189 183 173 176 175 175 175 176 172 178 173 172 175 171 174 178 179 178 176 172 169 164 164 168 169 169 171 172 171 173 170 167 171 172 172 172 173 162 152 158 163 165 169 162 155 155 159 156 157 147 153 160 158 160 149 150 152 150 150 153 147 137 130
207 184 252 236 223 266 10 135 183 175 311 309 306 326 310 357 320 326 308 341 78 239 183 176 168 171 170 164 166 175 180 186 190 194 195 191 182 181 173 176 175 174 180 180 175 177 174 176 176 179 181 176 175 169 163 168 169 167 171 168 169 170 173 171 168 166 168 164 165 160 164 163 160 162 166 169 168 171 164 161 157 157 158 157 155 167 168 175 165 148 144 144 150 150 144 136 135
230 221 131 247 184 233 251 277 212 262 193 256 206 45 287 320 325 151 258 26 324 246 181 159 157 159 162 167 176 178 185 190 196 198 201 197 190 185 176 172 176 174 180 179 179 178 175 179 179 184 180 174 171 172 168 172 171 173 173 167 172 164 176 177 167 166 154 163 168 159 164 172 161 166 162 171 173 176 174 176 162 165 161 159 159 167 170 174 162 135 117 124 148 146 143 142 144
193 235 203 264 217 237 264 264 276 250 239 248 201 184 199 201 256 222 76 26 29 124 144 145 151 161 169 175 179 183 188 197 203 206 202 195 191 177 171 177 174 178 186 189 182 182 178 178 161 183 179 177 177 171 177 174 166 174 180 177 175 175 180 185 165 159 160 165 171 163 177 164 170 171 171 180 180 182 165 191 193 181 170 164 164 166 172 174 174 155 145 147 142 144 145 147 151
195 220 156 254 257 298 289 288 267 259 256 201 214 154 203 213 35 204 3 35 104 134 137 148 157 164 176 184 184 186 192 199 205 209 208 196 165 182 185 186 182 188 194 192 187 180 182 168 183 179 175 185 181 180 183 175 172 178 192 183 178 176 187 182 178 178 178 180 182 172 177 174 174 175 171 174 185 179 169 190 204 200 182 174 180 170 170 179 176 165 157 151 149 150 149 148 151
170 197 214 244 266 340 273 246 274 304 259 210 254 110 116 128 194 178 82 120 137 140 145 158 167 173 178 183 188 192 195 200 205 208 203 182 179 196 197 197 194 198 189 193 196 185 181 174 176 191 183 182 181 183 169 167 172 192 196 187 195 193 190 187 190 191 187 188 181 182 183 180 174 174 177 179 187 181 181 187 203 209 201 190 200 171 155 167 180 180 166 155 155 152 146 147 154
157 160 158 231 284 237 254 273 274 273 274 167 212 67 181 24 189 65 133 150 154 146 153 165 177 182 183 185 188 195 201 205 211 213 213 206 202 191 192 200 196 193 191 188 196 190 181 187 187 194 194 197 185 185 178 169 188 193 195 203 207 203 191 199 201 200 198 198 188 184 184 178 175 181 183 181 190 192 188 196 197 212 208 200 201 186 160 160 185 186 170 147 134 129 125 134 130
148 168 213 206 281 254 163 265 25 273 253 169 168 118 52 46 209 79 123 147 157 158 160 171 180 187 191 189 193 200 204 202 208 215 219 211 181 186 195 193 185 194 192 190 185 181 187 181 195 205 205 196 194 193 188 188 191 179 191 205 207 209 204 203 204 207 209 207 196 190 184 186 183 186 186 188 190 194 197 199 203 206 213 202 197 190 160 160 170 182 176 149 123 108 118 117 127
132 98 181 266 16 256 50 265 14 172 301 216 193 218 27 238 300 17 41 156 159 163 171 177 180 190 194 194 201 208 204 203 211 218 226 209 181 189 215 165 210 219 195 180 182 192 184 186 197 197 197 204 200 194 185 176 194 198 205 208 209 205 204 201 210 212 213 210 210 205 190 198 196 193 190 190 192 199 203 202 200 206 211 205 192 194 191 177 171 183 180 177 137 136 136 142 147
191 139 100 260 189 186 66 358 9 177 42 31 286 209 121 10 8 359 23 195 173 173 182 185 187 192 196 199 207 214 210 210 218 222 229 253 263 56 12 1 286 245 210 181 190 193 184 187 191 181 169 171 171 176 190 202 199 209 214 217 210 203 199 200 206 216 221 214 214 210 206 198 196 198 200 191 198 202 206 205 200 203 199 204 198 199 201 187 175 181 184 183 163 151 143 152 156
42 159 180 111 213 150 342 87 219 182 37 52 268 192 73 47 6 1 25 202 193 214 203 199 195 198 200 200 211 223 218 218 226 230 232 251 311 360 18 9 5 316 268 231 116 143 188 216 210 173 154 151 164 164 181 199 215 213 219 221 218 212 208 211 210 210 219 218 219 218 214 207 205 207 202 200 200 201 205 205 202 194 196 200 204 195 198 192 178 180 176 175 169 168 158 149 154
23 232 119 150 214 139 252 59 46 324 100 49 313 105 174 44 356 4 20 123 181 203 215 222 219 218 211 210 216 234 229 228 231 237 255 283 308 343 3 6 3 3 357 75 98 109 131 168 172 138 130 142 174 211 212 218 217 222 219 220 220 221 220 218 216 212 216 221 224 225 214 208 212 214 212 205 195 201 208 169 188 189 195 203 200 201 202 199 181 170 172 177 165 164 167 155 154
160 346 133 88 191 167 135 339 55 41 219 140 22 84 50 13 1 6 16 10 193 205 208 220 218 220 223 225 230 246 241 243 269 312 310 309 294 345 352 11 26 17 32 43 95 125 115 147 148 120 120 148 173 192 213 230 236 234 228 227 224 223 225 230 225 216 218 224 228 226 217 212 215 205 212 200 199 206 205 190 202 189 195 196 190 195 204 191 178 179 168 178 170 163 168 168 162
155 149 139 141 82 314 76 144 36 59 15 114 94 78 50 26 17 18 16 23 126 178 212 215 224 227 226 233 242 257 273 311 355 345 337 323 309 314 352 12 37 42 43 68 48 80 125 124 113 112 120 167 205 204 177 207 229 231 235 229 225 234 250 244 242 234 229 225 227 221 211 213 198 187 211 198 209 208 204 194 178 211 202 198 187 184 197 197 193 185 171 170 172 172 169 168 161
165 168 156 136 149 150 164 150 41 12 75 75 66 79 50 29 24 22 30 34 52 49 39 215 227 244 245 246 255 267 301 332 335 355 28 343 334 339 356 23 39 37 33 27 46 53 71 104 110 112 115 151 161 191 206 217 215 213 217 215 223 180 266 260 226 238 240 234 230 221 210 214 204 189 213 206 206 204 205 198 197 211 211 193 184 178 178 178 196 187 180 168 161 154 154 149 152
101 92 116 124 130 156 296 275 121 110 83 49 85 79 60 46 32 32 36 44 46 43 41 30 16 6 347 278 260 271 310 11 57 50 42 19 346 341 14 34 38 39 43 33 10 30 50 73 109 104 124 150 154 175 205 215 225 221 219 216 215 156 207 234 231 227 244 256 247 230 196 266 228 217 220 209 206 208 206 205 198 212 204 183 189 189 178 175 182 178 166 164 165 159 156 161 156
130 123 128 131 168 155 126 92 38 296 150 107 87 77 62 51 47 41 43 49 46 37 37 34 25 21 13 6 354 339 30 68 25 24 15 3 343 344 9 35 38 34 31 43 29 10 8 56 97 110 129 150 175 200 209 227 232 232 233 224 221 181 196 223 247 263 284 271 258 240 152 227 256 242 229 205 218 223 215 197 169 211 208 190 169 158 164 155 150 132 158 140 147 148 156 178 161
119 173 131 148 174 291 346 69 52 87 102 129 112 82 67 60 56 53 50 55 51 50 51 47 42 36 26 21 14 13 71 30 11 12 21 1 349 359 25 42 46 41 39 32 20 360 339 11 155 148 155 155 166 180 229 246 246 239 240 262 252 255 238 237 226 213 174 222 268 255 224 197 218 221 211 201 217 225 229 212 185 200 212 181 151 158 162 154 148 162 178 155 146 144 122 200 185
138 126 172 190 93 182 149 77 39 354 114 147 121 92 77 66 63 59 54 52 56 53 53 52 51 47 39 36 35 32 34 26 28 23 23 20 9 7 22 42 48 48 48 44 34 20 2 10 97 177 168 168 168 179 192 208 213 217 212 203 189 222 225 212 179 134 233 177 237 258 259 240 236 225 193 210 213 222 214 212 212 207 199 172 189 178 175 167 160 172 182 181 147 146 156 185 198
331 175 178 157 179 217 109 110 48 68 68 135 122 97 75 37 44 54 57 57 55 52 55 53 48 50 48 43 38 32 40 38 31 27 26 26 29 32 36 45 52 57 52 43 41 42 29 10 347 81 207 211 194 181 193 196 200 203 185 175 183 170 169 149 177 198 192 196 206 229 233 221 244 226 210 192 214 206 205 210 214 212 190 196 178 177 184 185 189 172 188 177 171 154 160 170 196
171 248 201 193 189 153 142 122 141 128 151 235 284 116 44 32 50 49 42 54 55 48 53 49 45 41 40 40 37 33 30 29 36 42 39 34 35 35 40 46 50 51 52 45 43 37 32 24 13 360 188 203 237 220 207 208 201 186 182 190 191 194 188 159 209 216 209 208 211 210 212 213 204 203 185 191 227 222 211 199 212 213 199 179 168 163 166 164 186 179 183 179 152 159 163 148 191
175 197 197 199 155 143 167 147 159 156 169 177 4 239 120 62 53 37 40 60 57 53 50 45 41 39 40 40 38 35 32 30 29 27 29 31 23 29 33 30 28 26 22 32 41 42 46 48 36 22 15 349 279 236 233 222 221 217 215 220 228 224 213 200 213 210 213 217 229 215 222 210 199 192 178 184 200 221 222 210 210 205 195 181 154 179 168 186 195 183 149 135 161 157 175 169 189
194 183 176 157 146 184 192 172 233 98 15 106 73 303 135 141 54 7 12 68 56 52 47 44 41 39 40 40 39 37 35 33 33 32 30 28 27 24 22 21 23 20 19 24 28 20 19 19 11 19 62 74 43 33 11 4 317 289 268 262 251 249 239 231 199 210 221 225 220 224 232 231 210 196 200 194 194 179 228 219 218 204 201 196 189 189 197 201 191 188 181 180 185 182 186 176 176
187 180 171 172 190 195 153 210 204 117 209 142 107 255 107 83 54 1 42 69 56 50 46 42 39 37 39 39 37 37 38 35 33 33 28 24 22 20 13 14 12 17 18 17 18 18 17 12 6 346 330 329 338 164 183 188 189 216 244 242 237 251 253 237 215 209 220 224 227 216 213 227 223 207 200 194 174 165 206 225 221 209 205 201 192 204 203 199 199 198 196 184 196 203 197 186 176
242 114 77 65 66 69 167 182 199 163 208 180 160 324 114 88 24 110 67 64 56 56 44 39 33 34 33 33 34 33 32 32 33 32 26 24 20 15 5 6 13 12 8 14 16 14 12 11 10 4 8 351 312 274 262 243 217 178 177 199 220 241 239 229 214 214 222 228 232 220 221 222 228 216 199 177 163 162 167 230 228 212 207 199 199 203 192 193 208 209 206 198 196 201 201 195 200
117 130 118 99 64 83 77 68 90 146 233 133 330 309 226 128 200 265 81 42 56 64 52 37 27 28 28 32 35 33 29 27 27 27 27 22 18 19 12 12 360 2 6 11 16 14 9 8 3 1 4 360 353 345 326 293 255 229 227 223 229 231 231 226 219 226 232 238 240 232 221 216 217 219 196 182 180 183 174 197 210 212 209 207 203 201 183 200 217 207 203 197 199 194 195 203 198
146 146 144 131 91 123 117 105 140 213 200 82 339 342 279 151 201 166 98 84 62 63 55 32 28 22 22 26 29 30 28 26 25 25 20 14 14 15 13 10 4 1 2 7 9 8 10 8 4 1 0 356 351 345 335 323 306 279 251 240 234 227 221 221 224 234 232 236 238 234 224 215 214 218 200 182 187 197 182 192 195 207 210 212 216 208 195 188 205 213 204 199 198 179 204 203 204
206 144 156 175 165 155 176 170 192 208 196 68 321 285 68 59 110 127 104 85 77 67 59 50 37 29 25 28 29 29 29 27 28 27 23 20 19 13 9 4 2 5 3 2 6 7 6 5 4 4 1 355 351 346 340 329 321 313 297 270 260 249 233 227 226 239 247 237 239 239 231 223 216 206 195 190 202 197 191 192 198 200 201 204 210 206 206 193 185 217 208 207 201 189 206 211 207
174 180 171 174 170 174 173 163 27 37 69 222 349 310 79 120 117 121 103 87 89 83 74 61 56 46 38 35 31 30 31 29 27 25 24 20 18 15 11 7 3 358 358 359 359 2 3 1 3 357 353 355 353 348 343 336 329 322 316 304 286 268 260 234 213 229 233 233 236 245 247 239 227 221 205 206 208 205 197 189 193 202 200 199 192 196 198 215 201 210 214 210 206 203 203 207 213
191 71 186 200 127 168 157 165 171 177 121 60 355 228 142 158 144 114 109 103 79 68 61 53 49 45 44 40 34 32 30 30 28 26 23 18 15 13 11 9 4 2 359 356 356 355 359 358 357 350 350 354 354 348 340 335 330 330 324 313 301 298 280 244 237 249 247 250 254 257 263 259 249 232 223 213 217 201 198 193 197 201 202 197 194 185 195 214 217 210 210 211 209 207 215 212 215
162 160 36 149 196 132 125 84 115 144 136 125 23 45 54 92 112 112 108 95 81 64 54 36 34 31 31 31 26 21 19 22 23 22 21 20 19 16 13 8 7 3 358 357 358 356 354 352 349 349 347 349 349 347 341 333 329 324 320 311 296 289 279 268 254 244 243 246 251 251 254 255 249 237 226 209 210 199 199 199 198 207 207 196 197 191 203 204 208 212 213 213 214 211 215 214 217
180 154 193 164 66 106 103 107 35 47 74 49 332 121 105 115 108 118 119 106 94 83 68 49 39 32 35 33 25 23 18 19 19 19 19 18 16 16 15 12 4 1 359 354 352 352 348 348 346 345 343 344 346 343 332 330 330 330 318 307 299 286 270 258 249 237 234 242 245 248 242 247 246 237 226 213 212 195 197 202 206 207 202 194 202 208 207 201 202 208 214 216 216 207 212 215 216
109 196 166 108 73 34 126 149 32 26 155 111 274 165 147 159 150 149 125 114 105 86 79 67 53 40 36 33 32 27 23 21 20 21 20 17 15 13 12 9 5 358 352 349 348 348 354 353 351 349 345 343 340 332 327 331 334 331 331 318 296 281 273 264 256 245 233 237 241 243 246 245 245 238 226 208 203 194 196 197 198 200 203 199 199 204 190 177 179 187 225 224 218 210 213 218 217
175 160 154 175 146 183 18 110 159 143 97 142 272 164 172 187 138 149 144 127 124 108 86 71 56 46 37 30 28 27 25 22 19 17 16 15 13 9 7 5 2 3 2 354 349 347 349 354 354 354 350 340 334 330 329 326 332 331 328 326 313 299 292 277 261 245 235 233 235 237 234 242 248 237 228 211 203 208 198 191 191 192 198 200 191 188 178 179 193 201 212 218 213 208 209 211 215
55 112 118 4 233 143 158 192 127 118 132 143 185 170 199 194 116 170 144 133 138 122 96 74 61 50 42 33 28 25 22 21 18 16 15 13 11 3 359 358 359 3 0 359 357 356 358 357 356 356 351 349 344 341 339 333 327 323 319 321 318 303 292 283 260 245 241 233 236 238 238 241 242 236 231 221 213 209 203 195 192 199 205 199 185 191 191 197 199 204 209 215 213 207 210 213 212
116 148 125 98 46 318 68 57 29 152 151 175 141 182 202 94 326 146 136 140 140 124 108 85 68 56 50 40 29 25 23 19 19 14 11 9 3 358 358 356 354 352 354 1 4 2 0 359 358 357 353 350 347 343 337 333 329 327 327 325 323 315 297 274 262 252 242 246 248 241 242 241 236 228 224 221 215 207 203 200 197 202 202 194 189 188 190 194 196 203 211 213 212 208 208 209 209
142 160 167 143 136 135 164 147 101 84 145 153 155 187 130 64 47 113 124 129 126 115 107 92 74 65 56 44 33 29 24 22 17 13 8 5 2 360 358 357 356 358 358 3 6 4 4 2 356 353 351 351 346 343 340 333 329 323 327 327 327 322 306 290 269 259 255 246 244 244 243 239 232 229 221 222 216 207 201 195 199 203 201 194 188 188 184 182 191 197 208 212 216 208 208 211 206